"Pseudo-MPEC" for P112j5Y

Created 2020 Jul 7 2:07:07 UT using Find_Orb

Click here for an explanation of pseudo-MPECs

 
 Astrometry: 
     P112j5Y  C2020 06 29t!Dqm`AstrometrygLIvP@a6j_Ee-4,Ac7;_E7G-redacted;'A.F51
     P112j5Y  C2020 06 29%8U@Y'i/2cpclick.0s=6Z^TKy9pk`WL[fRMAr`here#;oiXfEfvF51
     P112j5Y  C2020 06 29G:m^tQ8E++pvk'HmT-iLmFAbi(4f$\forZKt.#f..explanationF51

Station data:
(F51) Pan-STARRS 1, Haleakala  (N20.707235 W156.255910)  US/Hawaii.
   Observers N. Primak, A. Schultz, S. Watters, J. Thiel, T. Goggia. Measurer
   PS1 Science Consortium. 1.8-m Ritchey-Chrétien + CCD.

Orbital elements:  P112j5Y
   Perihelion 2020 May 3.784556 +/- 63.2 TT = 18:49:45 (JD 2458973.284556)
Epoch 2020 Jun 30.0 TT = JDT 2459030.5   Earth MOID: 0.3807   Ma: 0.0474
M  16.46804852 +/- 50               (J2000 ecliptic)          AutoNEOCP
n   0.28782523 +/- 0.379            Peri.  138.28646 +/- 120
a   2.27186997 +/- 1.99             Node   111.90642 +/- 6
e   0.4111825 +/- 0.279             Incl.   22.12832 +/- 19
P   3.42                   H 22.0   G  0.15   U 12.1  SR
q 1.33771662 +/- 0.585    Q 3.20602333 +/- 29.5
From 3 observations 2020 June 29 (39.3 min); mean residual 0".03
Residuals in arcseconds: 
200629 F51  .01-  .03+    200629 F51  .01+  .06-    200629 F51  .02-  .02+    

Ephemerides (geocentric):
Date (UTC) HH   RA              Dec         delta   r     elong  mag " sig PA
---- -- -- --  -------------   -----------  ------ ------ -----  --- ---- ---
2020 07 07 02  21 23 59.854   -19 51 29.09  .50266 1.4665 147.7 22.4  56d 176
2020 07 07 03  21 24 00.144   -19 53 18.33  .50267 1.4667 147.8 22.4  57d 176
2020 07 07 04  21 24 00.428   -19 55 07.58  .50269 1.4668 147.8 22.4  57d 176
2020 07 07 05  21 24 00.708   -19 56 56.84  .50270 1.4670 147.9 22.4  57d 177
2020 07 07 06  21 24 00.982   -19 58 46.11  .50271 1.4671 147.9 22.4  58d 177
2020 07 07 07  21 24 01.252   -20 00 35.39  .50272 1.4673 148.0 22.4  58d 177
2020 07 07 08  21 24 01.517   -20 02 24.67  .50274 1.4674 148.0 22.4  59d 177
2020 07 07 09  21 24 01.777   -20 04 13.96  .50275 1.4676 148.0 22.4  59d 177
2020 07 07 10  21 24 02.032   -20 06 03.26  .50277 1.4677 148.1 22.4  59d 177
2020 07 07 11  21 24 02.282   -20 07 52.56  .50278 1.4679 148.1 22.4  59d 176
2020 07 07 12  21 24 02.527   -20 09 41.87  .50280 1.4680 148.2 22.4  59d 176
2020 07 07 13  21 24 02.767   -20 11 31.19  .50281 1.4682 148.2 22.4  60d 176
2020 07 07 14  21 24 03.002   -20 13 20.52  .50283 1.4684 148.3 22.4  60d 176
2020 07 07 15  21 24 03.233   -20 15 09.85  .50284 1.4685 148.3 22.4  60d 176
2020 07 07 16  21 24 03.458   -20 16 59.18  .50286 1.4687 148.4 22.4  60d 176
2020 07 07 17  21 24 03.678   -20 18 48.53  .50288 1.4688 148.4 22.4  60d 175
2020 07 07 18  21 24 03.894   -20 20 37.87  .50289 1.4690 148.4 22.4  60d 175
2020 07 07 19  21 24 04.105   -20 22 27.23  .50291 1.4691 148.5 22.4  60d 175
2020 07 07 20  21 24 04.310   -20 24 16.58  .50293 1.4693 148.5 22.4  60d 175
2020 07 07 21  21 24 04.511   -20 26 05.94  .50295 1.4694 148.6 22.4  60d 175
2020 07 07 22  21 24 04.707   -20 27 55.31  .50296 1.4696 148.6 22.4  60d 175
2020 07 07 23  21 24 04.898   -20 29 44.68  .50298 1.4697 148.7 22.4  60d 175
2020 07 08 00  21 24 05.084   -20 31 34.06  .50300 1.4699 148.7 22.4  60d 175
2020 07 08 01  21 24 05.265   -20 33 23.43  .50302 1.4701 148.7 22.4  60d 175
2020 07 08 02  21 24 05.441   -20 35 12.81  .50304 1.4702 148.8 22.4  60d 175
2020 07 08 03  21 24 05.612   -20 37 02.20  .50306 1.4704 148.8 22.4  61d 175
2020 07 08 04  21 24 05.779   -20 38 51.59  .50308 1.4705 148.9 22.4  61d 175
2020 07 08 05  21 24 05.940   -20 40 40.98  .50310 1.4707 148.9 22.4  61d 175
2020 07 08 06  21 24 06.097   -20 42 30.37  .50312 1.4708 149.0 22.4  61d 175
2020 07 08 07  21 24 06.248   -20 44 19.77  .50315 1.4710 149.0 22.4  61d 175
2020 07 08 08  21 24 06.395   -20 46 09.16  .50317 1.4711 149.1 22.4  61d 175
2020 07 08 09  21 24 06.537   -20 47 58.56  .50319 1.4713 149.1 22.4  61d 174
2020 07 08 10  21 24 06.674   -20 49 47.96  .50321 1.4715 149.1 22.4  61d 174
2020 07 08 11  21 24 06.806   -20 51 37.37  .50323 1.4716 149.2 22.4  62d 174
2020 07 08 12  21 24 06.933   -20 53 26.77  .50326 1.4718 149.2 22.4  62d 174
2020 07 08 13  21 24 07.055   -20 55 16.17  .50328 1.4719 149.3 22.4  62d 174
2020 07 08 14  21 24 07.172   -20 57 05.58  .50330 1.4721 149.3 22.4  62d 174
2020 07 08 15  21 24 07.285   -20 58 54.98  .50333 1.4722 149.4 22.4  62d 174
2020 07 08 16  21 24 07.392   -21 00 44.39  .50335 1.4724 149.4 22.4  62d 174
2020 07 08 17  21 24 07.495   -21 02 33.79  .50338 1.4725 149.4 22.4  62d 174
2020 07 08 18  21 24 07.593   -21 04 23.20  .50340 1.4727 149.5 22.4  62d 174
2020 07 08 19  21 24 07.685   -21 06 12.60  .50343 1.4729 149.5 22.4  62d 174
2020 07 08 20  21 24 07.773   -21 08 02.01  .50346 1.4730 149.6 22.4  62d 174
2020 07 08 21  21 24 07.857   -21 09 51.41  .50348 1.4732 149.6 22.4  62d 174
2020 07 08 22  21 24 07.935   -21 11 40.81  .50351 1.4733 149.7 22.4  62d 174
2020 07 08 23  21 24 08.008   -21 13 30.21  .50354 1.4735 149.7 22.4  62d 174
2020 07 09 00  21 24 08.076   -21 15 19.61  .50356 1.4736 149.7 22.4  62d 174
2020 07 09 01  21 24 08.140   -21 17 09.00  .50359 1.4738 149.8 22.4  62d 174